| time (UTC) | temp F | wind direction | speed MPH | gust MPH | rain 1hr in | rain 24hr in | rain mn in | humidity % | barometer mb |
| 20260510124824 | 56 | 48 | 3.0 | 7.0 | 0.00 | 0.00 | 0.00 | 48 | 1015.0 |
| 20260510124325 | 56 | 8 | 2.0 | 7.0 | 0.00 | 0.00 | 0.00 | 48 | 1015.1 |
| 20260510123825 | 56 | 0 | 3.0 | 7.0 | 0.00 | 0.00 | 0.00 | 48 | 1015.2 |
| 20260510123324 | 56 | 58 | 3.0 | 9.0 | 0.00 | 0.00 | 0.00 | 48 | 1015.2 |
| 20260510123221 | 56 | 21 | 4.0 | 13.0 | 0.00 | 0.00 | 0.00 | 48 | 1015.3 |
| 20260510122324 | 56 | 114 | 5.0 | 13.0 | 0.00 | 0.00 | 0.00 | 47 | 1015.3 |
| 20260510121827 | 57 | 49 | 6.0 | 13.0 | 0.00 | 0.00 | 0.00 | 47 | 1015.3 |
| 20260510121324 | 57 | 69 | 4.0 | 12.0 | 0.00 | 0.00 | 0.00 | 47 | 1015.2 |
| 20260510120822 | 57 | 44 | 6.0 | 13.0 | 0.00 | 0.00 | 0.00 | 47 | 1015.3 |
| 20260510120324 | 57 | 72 | 6.0 | 13.0 | 0.00 | 0.00 | 0.00 | 47 | 1015.3 |
| 20260510115822 | 57 | 6 | 5.0 | 14.0 | 0.00 | 0.00 | 0.00 | 46 | 1015.2 |
| 20260510115324 | 57 | 68 | 6.0 | 14.0 | 0.00 | 0.00 | 0.00 | 46 | 1015.2 |
| 20260510114825 | 57 | 45 | 6.0 | 14.0 | 0.00 | 0.00 | 0.00 | 46 | 1015.3 |
| 20260510114325 | 57 | 55 | 6.0 | 14.0 | 0.00 | 0.00 | 0.00 | 46 | 1015.2 |
| 20260510113824 | 57 | 351 | 4.0 | 13.0 | 0.00 | 0.00 | 0.00 | 47 | 1015.4 |
| 20260510113324 | 57 | 42 | 4.0 | 10.0 | 0.00 | 0.00 | 0.00 | 47 | 1015.4 |
| 20260510112823 | 57 | 30 | 5.0 | 10.0 | 0.00 | 0.00 | 0.00 | 46 | 1015.4 |
| 20260510112322 | 57 | 47 | 4.0 | 7.0 | 0.00 | 0.00 | 0.00 | 47 | 1015.5 |
| 20260510112218 | 57 | 13 | 3.0 | 9.0 | 0.00 | 0.00 | 0.00 | 47 | 1015.5 |
| 20260510111324 | 57 | 316 | 2.0 | 11.0 | 0.00 | 0.00 | 0.00 | 47 | 1015.5 |
| 20260510111220 | 57 | 16 | 5.0 | 11.0 | 0.00 | 0.00 | 0.00 | 47 | 1015.5 |
| 20260510110322 | 57 | 30 | 3.0 | 12.0 | 0.00 | 0.00 | 0.00 | 47 | 1015.7 |
| 20260510105824 | 57 | 42 | 4.0 | 12.0 | 0.00 | 0.00 | 0.00 | 47 | 1015.8 |
| 20260510105322 | 56 | 73 | 6.0 | 12.0 | 0.00 | 0.00 | 0.00 | 47 | 1015.6 |
| 20260510104822 | 56 | 76 | 4.0 | 12.0 | 0.00 | 0.00 | 0.00 | 48 | 1015.7 |
| 20260510104322 | 56 | 42 | 4.0 | 13.0 | 0.00 | 0.00 | 0.00 | 48 | 1015.8 |
| 20260510103823 | 55 | 30 | 4.0 | 13.0 | 0.00 | 0.00 | 0.00 | 48 | 1015.8 |
| 20260510103324 | 55 | 63 | 4.0 | 15.0 | 0.00 | 0.00 | 0.00 | 48 | 1015.9 |
| 20260510102821 | 55 | 45 | 3.0 | 15.0 | 0.00 | 0.00 | 0.00 | 48 | 1015.8 |
| 20260510102720 | 55 | 76 | 6.0 | 14.0 | 0.00 | 0.00 | 0.00 | 48 | 1015.9 |
| 20260510101820 | 55 | 41 | 4.0 | 14.0 | 0.00 | 0.00 | 0.00 | 48 | 1016.0 |
| 20260510101318 | 55 | 28 | 5.0 | 9.0 | 0.00 | 0.00 | 0.00 | 49 | 1015.9 |
| 20260510100818 | 54 | 30 | 4.0 | 12.0 | 0.00 | 0.00 | 0.00 | 49 | 1015.9 |
| 20260510100318 | 54 | 1 | 4.0 | 12.0 | 0.00 | 0.00 | 0.00 | 49 | 1015.9 |
| 20260510095817 | 54 | 37 | 3.0 | 12.0 | 0.00 | 0.00 | 0.00 | 49 | 1015.9 |
| 20260510095318 | 54 | 78 | 4.0 | 9.0 | 0.00 | 0.00 | 0.00 | 50 | 1016.0 |
| 20260510094816 | 54 | 1 | 2.0 | 11.0 | 0.00 | 0.00 | 0.00 | 50 | 1016.0 |
| 20260510094713 | 54 | 28 | 4.0 | 11.0 | 0.00 | 0.00 | 0.00 | 50 | 1016.0 |
| 20260510093817 | 53 | 1 | 4.0 | 11.0 | 0.00 | 0.00 | 0.00 | 50 | 1016.1 |
| 20260510093312 | 53 | 83 | 3.0 | 13.0 | 0.00 | 0.00 | 0.00 | 51 | 1016.1 |
| 20260510092812 | 53 | 76 | 4.0 | 13.0 | 0.00 | 0.00 | 0.00 | 50 | 1016.1 |
| 20260510092704 | 53 | 1 | 3.0 | 9.0 | 0.00 | 0.00 | 0.00 | 51 | 1016.1 |
| 20260510091812 | 52 | 6 | 4.0 | 10.0 | 0.00 | 0.00 | 0.00 | 51 | 1016.2 |
| 20260510091311 | 52 | 14 | 4.0 | 10.0 | 0.00 | 0.00 | 0.00 | 51 | 1016.1 |
| 20260510090811 | 52 | 49 | 4.0 | 10.0 | 0.00 | 0.00 | 0.00 | 51 | 1016.2 |
| 20260510090310 | 52 | 35 | 2.0 | 13.0 | 0.00 | 0.00 | 0.00 | 52 | 1016.2 |
| 20260510085809 | 52 | 61 | 5.0 | 13.0 | 0.00 | 0.00 | 0.00 | 51 | 1016.3 |
| 20260510085311 | 52 | 348 | 4.0 | 10.0 | 0.00 | 0.00 | 0.00 | 52 | 1016.4 |
| 20260510084807 | 52 | 44 | 3.0 | 9.0 | 0.00 | 0.00 | 0.00 | 52 | 1016.3 |
| 20260510084308 | 52 | 25 | 4.0 | 10.0 | 0.00 | 0.00 | 0.00 | 52 | 1016.4 |
| 20260510083940 | 52 | 351 | 4.0 | 14.0 | 0.00 | 0.00 | 0.00 | 52 | 1016.4 |
| 20260510083204 | 52 | 24 | 4.0 | 13.0 | 0.00 | 0.00 | 0.00 | 52 | 1016.4 |
| 20260510082306 | 52 | 16 | 3.0 | 7.0 | 0.00 | 0.00 | 0.00 | 52 | 1016.4 |
| 20260510081804 | 51 | 21 | 3.0 | 10.0 | 0.00 | 0.00 | 0.00 | 52 | 1016.4 |
| 20260510081302 | 51 | 306 | 3.0 | 7.0 | 0.00 | 0.00 | 0.00 | 53 | 1016.5 |
| 20260510080804 | 51 | 38 | 4.0 | 7.0 | 0.00 | 0.00 | 0.00 | 53 | 1016.5 |
| 20260510080433 | 51 | 30 | 4.0 | 7.0 | 0.00 | 0.00 | 0.00 | 53 | 1016.5 |
| 20260510075306 | 51 | 45 | 2.0 | 9.0 | 0.00 | 0.00 | 0.00 | 54 | 1016.5 |
| 20260510074802 | 51 | 21 | 3.0 | 9.0 | 0.00 | 0.00 | 0.00 | 54 | 1016.6 |
| 20260510074302 | 51 | 49 | 3.0 | 7.0 | 0.00 | 0.00 | 0.00 | 54 | 1016.5 |
| 20260510073803 | 51 | 17 | 3.0 | 7.0 | 0.00 | 0.00 | 0.00 | 54 | 1016.6 |
| 20260510073304 | 51 | 51 | 2.0 | 7.0 | 0.00 | 0.00 | 0.00 | 54 | 1016.6 |
| 20260510072803 | 51 | 20 | 3.0 | 12.0 | 0.00 | 0.00 | 0.00 | 55 | 1016.4 |
| 20260510072657 | 50 | 10 | 3.0 | 12.0 | 0.00 | 0.00 | 0.00 | 55 | 1016.5 |
| 20260510071804 | 50 | 142 | 3.0 | 13.0 | 0.00 | 0.00 | 0.00 | 55 | 1016.5 |
| 20260510071306 | 50 | 45 | 4.0 | 13.0 | 0.00 | 0.00 | 0.00 | 55 | 1016.5 |
| 20260510070805 | 50 | 37 | 2.0 | 6.0 | 0.00 | 0.00 | 0.00 | 55 | 1016.4 |
| 20260510070303 | 50 | 331 | 3.0 | 11.0 | 0.00 | 0.00 | 0.00 | 55 | 1016.5 |
| 20260510065806 | 50 | 49 | 3.0 | 12.0 | 0.00 | 0.00 | 0.00 | 56 | 1016.5 |
| 20260510065306 | 50 | 73 | 4.0 | 12.0 | 0.00 | 0.00 | 0.00 | 56 | 1016.4 |
| 20260510064804 | 50 | 103 | 2.0 | 7.0 | 0.00 | 0.00 | 0.00 | 56 | 1016.5 |
| 20260510064657 | 50 | 30 | 4.0 | 6.0 | 0.00 | 0.00 | 0.00 | 56 | 1016.5 |
| 20260510063804 | 50 | 30 | 2.0 | 5.0 | 0.00 | 0.00 | 0.00 | 57 | 1016.6 |
| 20260510063304 | 50 | 1 | 2.0 | 5.0 | 0.00 | 0.00 | 0.00 | 57 | 1016.5 |
| 20260510063159 | 50 | 71 | 2.0 | 5.0 | 0.00 | 0.00 | 0.00 | 57 | 1016.4 |
| 20260510062307 | 50 | 13 | 2.0 | 6.0 | 0.00 | 0.00 | 0.00 | 57 | 1016.4 |
| 20260510061805 | 50 | 25 | 3.0 | 6.0 | 0.00 | 0.00 | 0.00 | 57 | 1016.3 |
| 20260510061305 | 50 | 10 | 2.0 | 6.0 | 0.00 | 0.00 | 0.00 | 57 | 1016.4 |
| 20260510060805 | 49 | 343 | 1.0 | 7.0 | 0.00 | 0.00 | 0.00 | 57 | 1016.3 |
| 20260510060306 | 49 | 344 | 2.0 | 7.0 | 0.00 | 0.00 | 0.00 | 57 | 1016.3 |
| 20260510055804 | 49 | 1 | 2.0 | 6.0 | 0.00 | 0.00 | 0.00 | 58 | 1016.2 |
| 20260510055306 | 49 | 10 | 2.0 | 6.0 | 0.00 | 0.00 | 0.00 | 58 | 1016.2 |
| 20260510054807 | 49 | 20 | 2.0 | 5.0 | 0.00 | 0.00 | 0.00 | 58 | 1016.1 |
| 20260510054304 | 49 | 1 | 2.0 | 6.0 | 0.00 | 0.00 | 0.00 | 58 | 1016.1 |
| 20260510053806 | 49 | 37 | 2.0 | 6.0 | 0.00 | 0.00 | 0.00 | 58 | 1016.2 |
| 20260510053655 | 49 | 72 | 2.0 | 4.0 | 0.00 | 0.00 | 0.00 | 58 | 1016.2 |
| 20260510052804 | 49 | 16 | 2.0 | 4.0 | 0.00 | 0.00 | 0.00 | 58 | 1016.2 |
| 20260510052306 | 49 | 17 | 2.0 | 4.0 | 0.00 | 0.00 | 0.00 | 58 | 1016.2 |
| 20260510051803 | 49 | 51 | 2.0 | 5.0 | 0.00 | 0.00 | 0.00 | 58 | 1016.3 |
| 20260510051304 | 49 | 45 | 2.0 | 5.0 | 0.00 | 0.00 | 0.00 | 58 | 1016.2 |
| 20260510050803 | 49 | 82 | 2.0 | 5.0 | 0.00 | 0.00 | 0.00 | 58 | 1016.2 |
| 20260510050305 | 49 | 16 | 1.0 | 5.0 | 0.00 | 0.00 | 0.00 | 58 | 1016.2 |
| 20260510045805 | 49 | 1 | 2.0 | 5.0 | 0.00 | 0.00 | 0.00 | 59 | 1016.2 |
| 20260510045306 | 49 | 35 | 1.0 | 5.0 | 0.00 | 0.00 | 0.00 | 59 | 1016.1 |
| 20260510045156 | 49 | 1 | 2.0 | 5.0 | 0.00 | 0.00 | 0.00 | 59 | 1016.1 |
| 20260510044305 | 49 | 20 | 2.0 | 5.0 | 0.00 | 0.00 | 0.00 | 59 | 1016.1 |
| 20260510043804 | 49 | 303 | 2.0 | 5.0 | 0.00 | 0.00 | 0.00 | 59 | 1016.1 |
| 20260510043305 | 49 | 89 | 2.0 | 5.0 | 0.00 | 0.00 | 0.00 | 59 | 1016.1 |
| 20260510042804 | 49 | 336 | 2.0 | 4.0 | 0.00 | 0.00 | 0.00 | 58 | 1016.1 |
| 20260510042306 | 49 | 51 | 2.0 | 4.0 | 0.00 | 0.00 | 0.00 | 58 | 1016.2 |
| 20260510042159 | 49 | 1 | 2.0 | 4.0 | 0.00 | 0.00 | 0.00 | 58 | 1016.2 |
| 20260510041306 | 49 | 1 | 2.0 | 4.0 | 0.00 | 0.00 | 0.00 | 58 | 1016.2 |
| 20260510040805 | 49 | 45 | 1.0 | 2.0 | 0.00 | 0.00 | 0.00 | 58 | 1016.3 |
| 20260510040304 | 49 | 13 | 1.0 | 4.0 | 0.00 | 0.00 | 0.00 | 58 | 1016.3 |
| 20260510035805 | 49 | 1 | 1.0 | 4.0 | 0.00 | 0.00 | 0.00 | 58 | 1016.3 |
| 20260510035306 | 49 | 68 | 2.0 | 5.0 | 0.00 | 0.00 | 0.00 | 58 | 1016.4 |
| 20260510034806 | 49 | 45 | 2.0 | 5.0 | 0.00 | 0.00 | 0.00 | 58 | 1016.3 |
| 20260510034304 | 49 | 348 | 1.0 | 6.0 | 0.00 | 0.00 | 0.00 | 58 | 1016.3 |
| 20260510033806 | 49 | 1 | 2.0 | 6.0 | 0.00 | 0.00 | 0.00 | 58 | 1016.4 |
| 20260510033304 | 49 | 16 | 2.0 | 6.0 | 0.00 | 0.00 | 0.00 | 58 | 1016.5 |
| 20260510032805 | 49 | 314 | 1.0 | 4.0 | 0.00 | 0.00 | 0.00 | 58 | 1016.5 |
| 20260510032306 | 49 | 10 | 2.0 | 5.0 | 0.00 | 0.00 | 0.00 | 58 | 1016.6 |
| 20260510031805 | 49 | 285 | 1.0 | 5.0 | 0.00 | 0.00 | 0.00 | 58 | 1016.6 |
| 20260510031304 | 50 | 329 | 1.0 | 4.0 | 0.00 | 0.00 | 0.00 | 58 | 1016.6 |
| 20260510030804 | 50 | 341 | 2.0 | 6.0 | 0.00 | 0.00 | 0.00 | 58 | 1016.7 |
| 20260510030305 | 50 | 39 | 2.0 | 6.0 | 0.00 | 0.00 | 0.00 | 58 | 1016.6 |
| 20260510025804 | 50 | 32 | 1.0 | 5.0 | 0.00 | 0.00 | 0.00 | 58 | 1016.6 |
| 20260510025306 | 50 | 45 | 2.0 | 5.0 | 0.00 | 0.00 | 0.00 | 58 | 1016.6 |
| 20260510024805 | 50 | 314 | 2.0 | 6.0 | 0.00 | 0.00 | 0.00 | 58 | 1016.6 |
| 20260510024303 | 50 | 39 | 2.0 | 6.0 | 0.00 | 0.00 | 0.00 | 58 | 1016.5 |
| 20260510023803 | 50 | 254 | 2.0 | 5.0 | 0.00 | 0.00 | 0.00 | 57 | 1016.5 |
| 20260510023303 | 50 | 17 | 2.0 | 5.0 | 0.00 | 0.00 | 0.00 | 57 | 1016.5 |
| 20260510022803 | 51 | 320 | 2.0 | 5.0 | 0.00 | 0.00 | 0.00 | 57 | 1016.5 |
| 20260510022306 | 51 | 56 | 2.0 | 7.0 | 0.00 | 0.00 | 0.00 | 57 | 1016.6 |
| 20260510022201 | 51 | 89 | 2.0 | 7.0 | 0.00 | 0.00 | 0.00 | 57 | 1016.5 |
| 20260510021304 | 51 | 1 | 2.0 | 5.0 | 0.00 | 0.00 | 0.00 | 57 | 1016.6 |
| 20260510020804 | 51 | 23 | 2.0 | 6.0 | 0.00 | 0.00 | 0.00 | 56 | 1016.6 |
| 20260510020528 | 51 | 39 | 2.0 | 6.0 | 0.00 | 0.00 | 0.00 | 56 | 1016.6 |
| 20260510015306 | 51 | 37 | 2.0 | 6.0 | 0.00 | 0.00 | 0.00 | 55 | 1016.5 |
| 20260510014803 | 51 | 13 | 2.0 | 6.0 | 0.00 | 0.00 | 0.00 | 54 | 1016.5 |
| 20260510014703 | 51 | 45 | 2.0 | 4.0 | 0.00 | 0.00 | 0.00 | 54 | 1016.4 |
| 20260510013804 | 51 | 312 | 2.0 | 5.0 | 0.00 | 0.00 | 0.00 | 53 | 1016.4 |
| 20260510013302 | 51 | 32 | 2.0 | 6.0 | 0.00 | 0.00 | 0.00 | 52 | 1016.5 |
| 20260510012803 | 52 | 45 | 2.0 | 6.0 | 0.00 | 0.00 | 0.00 | 51 | 1016.5 |
| 20260510012307 | 52 | 32 | 2.0 | 5.0 | 0.00 | 0.00 | 0.00 | 49 | 1016.5 |
| 20260510012159 | 52 | 317 | 2.0 | 5.0 | 0.00 | 0.00 | 0.00 | 48 | 1016.5 |
| 20260510011700 | 53 | 38 | 2.0 | 4.0 | 0.00 | 0.00 | 0.00 | 48 | 1016.5 |
| 20260510010800 | 53 | 20 | 1.0 | 3.0 | 0.00 | 0.00 | 0.00 | 48 | 1016.4 |
| 20260510010302 | 53 | 269 | 1.0 | 4.0 | 0.00 | 0.00 | 0.00 | 48 | 1016.6 |
| 20260510005800 | 53 | 56 | 1.0 | 6.0 | 0.00 | 0.00 | 0.00 | 48 | 1016.4 |
| 20260510005301 | 53 | 28 | 3.0 | 6.0 | 0.00 | 0.00 | 0.00 | 48 | 1016.4 |
| 20260510004802 | 53 | 7 | 1.0 | 5.0 | 0.00 | 0.00 | 0.00 | 47 | 1016.4 |
| 20260510004302 | 53 | 20 | 1.0 | 6.0 | 0.00 | 0.00 | 0.00 | 47 | 1016.4 |
| 20260510003756 | 54 | 1 | 2.0 | 6.0 | 0.00 | 0.00 | 0.00 | 47 | 1016.5 |
| 20260510003257 | 54 | 28 | 2.0 | 4.0 | 0.00 | 0.00 | 0.00 | 46 | 1016.5 |
| 20260510002757 | 54 | 314 | 1.0 | 3.0 | 0.00 | 0.00 | 0.00 | 46 | 1016.6 |
| 20260510002255 | 54 | 28 | 2.0 | 4.0 | 0.00 | 0.00 | 0.00 | 46 | 1016.5 |
| 20260510001755 | 54 | 314 | 2.0 | 4.0 | 0.00 | 0.00 | 0.00 | 46 | 1016.6 |
| 20260510001255 | 54 | 38 | 2.0 | 4.0 | 0.00 | 0.00 | 0.00 | 46 | 1016.6 |
| 20260510001148 | 54 | 319 | 1.0 | 4.0 | 0.00 | 0.00 | 0.00 | 46 | 1016.5 |
| 20260510000253 | 54 | 23 | 2.0 | 4.0 | 0.00 | 0.00 | 0.00 | 45 | 1016.5 |
| 20260509235752 | 54 | 344 | 2.0 | 4.0 | 0.00 | 0.00 | 0.00 | 45 | 1016.5 |
| 20260509235640 | 54 | 327 | 2.0 | 3.0 | 0.00 | 0.00 | 0.00 | 45 | 1016.4 |
| 20260509234751 | 54 | 341 | 2.0 | 3.0 | 0.00 | 0.00 | 0.00 | 45 | 1016.6 |
| 20260509234252 | 54 | 56 | 1.0 | 5.0 | 0.00 | 0.00 | 0.00 | 44 | 1016.4 |
| 20260509233750 | 55 | 351 | 1.0 | 5.0 | 0.00 | 0.00 | 0.00 | 44 | 1016.4 |
| 20260509233252 | 55 | 45 | 1.0 | 3.0 | 0.00 | 0.00 | 0.00 | 44 | 1016.4 |
| 20260509232752 | 55 | 1 | 2.0 | 2.0 | 0.00 | 0.00 | 0.00 | 44 | 1016.4 |
| 20260509232251 | 55 | 45 | 1.0 | 2.0 | 0.00 | 0.00 | 0.00 | 44 | 1016.4 |
| 20260509232149 | 55 | 20 | 2.0 | 4.0 | 0.00 | 0.00 | 0.00 | 44 | 1016.4 |
| 20260509231246 | 55 | 17 | 2.0 | 4.0 | 0.00 | 0.00 | 0.00 | 43 | 1016.4 |
| 20260509230748 | 55 | 45 | 1.0 | 4.0 | 0.00 | 0.00 | 0.00 | 43 | 1016.4 |
| 20260509230638 | 55 | 1 | 2.0 | 4.0 | 0.00 | 0.00 | 0.00 | 42 | 1016.4 |
| 20260509230151 | 55 | 89 | 1.0 | 3.0 | 0.00 | 0.00 | 0.00 | 42 | 1016.3 |
| 20260509225246 | 56 | 35 | 1.0 | 4.0 | 0.00 | 0.00 | 0.00 | 41 | 1016.4 |
| 20260509224744 | 56 | 56 | 2.0 | 4.0 | 0.00 | 0.00 | 0.00 | 41 | 1016.4 |
| 20260509224639 | 56 | 45 | 1.0 | 4.0 | 0.00 | 0.00 | 0.00 | 41 | 1016.3 |
| 20260509224144 | 56 | 324 | 1.0 | 4.0 | 0.00 | 0.00 | 0.00 | 41 | 1016.4 |
| 20260509223635 | 56 | 37 | 2.0 | 6.0 | 0.00 | 0.00 | 0.00 | 40 | 1016.3 |
| 20260509222741 | 56 | 94 | 2.0 | 6.0 | 0.00 | 0.00 | 0.00 | 40 | 1016.4 |
| 20260509222242 | 56 | 20 | 2.0 | 5.0 | 0.00 | 0.00 | 0.00 | 39 | 1016.3 |
| 20260509221743 | 56 | 72 | 1.0 | 3.0 | 0.00 | 0.00 | 0.00 | 39 | 1016.3 |
| 20260509221643 | 56 | 63 | 0.0 | 4.0 | 0.00 | 0.00 | 0.00 | 39 | 1016.4 |
| 20260509220740 | 56 | 76 | 2.0 | 7.0 | 0.00 | 0.00 | 0.00 | 39 | 1016.4 |
| 20260509220237 | 56 | 45 | 2.0 | 7.0 | 0.00 | 0.00 | 0.00 | 38 | 1016.3 |
| 20260509220136 | 56 | 39 | 2.0 | 4.0 | 0.00 | 0.00 | 0.00 | 38 | 1016.3 |
| 20260509215238 | 57 | 76 | 2.0 | 4.0 | 0.00 | 0.00 | 0.00 | 38 | 1016.3 |
| 20260509214734 | 57 | 45 | 1.0 | 6.0 | 0.00 | 0.00 | 0.00 | 37 | 1016.3 |
| 20260509214235 | 57 | 45 | 2.0 | 6.0 | 0.00 | 0.00 | 0.00 | 37 | 1016.3 |
| 20260509213736 | 57 | 1 | 2.0 | 6.0 | 0.00 | 0.00 | 0.00 | 36 | 1016.4 |
| 20260509213236 | 57 | 310 | 2.0 | 5.0 | 0.00 | 0.00 | 0.00 | 36 | 1016.4 |
| 20260509212733 | 57 | 35 | 2.0 | 4.0 | 0.00 | 0.00 | 0.00 | 36 | 1016.5 |
| 20260509212234 | 57 | 59 | 1.0 | 4.0 | 0.00 | 0.00 | 0.00 | 35 | 1016.4 |
| 20260509211733 | 58 | 45 | 1.0 | 4.0 | 0.00 | 0.00 | 0.00 | 35 | 1016.5 |
| 20260509211415 | 58 | 76 | 2.0 | 7.0 | 0.00 | 0.00 | 0.00 | 35 | 1016.2 |
| 20260509211325 | 58 | 76 | 2.0 | 5.0 | 0.00 | 0.00 | 0.00 | 35 | 1016.3 |
| 20260509205733 | 58 | 28 | 2.0 | 4.0 | 0.00 | 0.00 | 0.00 | 35 | 1016.2 |
| 20260509205232 | 59 | 178 | 1.0 | 4.0 | 0.00 | 0.00 | 0.00 | 35 | 1016.1 |
| 20260509204732 | 59 | 54 | 1.0 | 7.0 | 0.00 | 0.00 | 0.00 | 35 | 1016.1 |
| 20260509204234 | 59 | 45 | 2.0 | 7.0 | 0.00 | 0.00 | 0.00 | 34 | 1016.0 |
| 20260509203734 | 59 | 38 | 2.0 | 7.0 | 0.00 | 0.00 | 0.00 | 34 | 1016.0 |
| 20260509203612 | 59 | 42 | 2.0 | 4.0 | 0.00 | 0.00 | 0.00 | 35 | 1015.9 |
| 20260509203116 | 60 | 45 | 2.0 | 5.0 | 0.00 | 0.00 | 0.00 | 34 | 1015.9 |
| 20260509202218 | 60 | 51 | 3.0 | 7.0 | 0.00 | 0.00 | 0.00 | 34 | 1016.0 |
| 20260509201718 | 60 | 65 | 2.0 | 7.0 | 0.00 | 0.00 | 0.00 | 33 | 1015.9 |
| 20260509201217 | 60 | 75 | 3.0 | 7.0 | 0.00 | 0.00 | 0.00 | 33 | 1015.8 |
| 20260509200718 | 60 | 68 | 4.0 | 6.0 | 0.00 | 0.00 | 0.00 | 32 | 1015.8 |
| 20260509200216 | 60 | 72 | 3.0 | 6.0 | 0.00 | 0.00 | 0.00 | 33 | 1015.8 |
| 20260509195718 | 61 | 35 | 3.0 | 7.0 | 0.00 | 0.00 | 0.00 | 33 | 1015.7 |
| 20260509195217 | 61 | 45 | 2.0 | 7.0 | 0.00 | 0.00 | 0.00 | 33 | 1015.8 |
| 20260509194719 | 61 | 55 | 3.0 | 9.0 | 0.00 | 0.00 | 0.00 | 33 | 1015.8 |
| 20260509194218 | 61 | 73 | 3.0 | 9.0 | 0.00 | 0.00 | 0.00 | 33 | 1015.7 |
| 20260509193718 | 62 | 17 | 2.0 | 6.0 | 0.00 | 0.00 | 0.00 | 33 | 1015.7 |
| 20260509193357 | 62 | 61 | 2.0 | 6.0 | 0.00 | 0.00 | 0.00 | 33 | 1015.6 |
| 20260509192217 | 62 | 41 | 2.0 | 5.0 | 0.00 | 0.00 | 0.00 | 34 | 1015.5 |
| 20260509191717 | 62 | 39 | 2.0 | 5.0 | 0.00 | 0.00 | 0.00 | 33 | 1015.5 |
| 20260509191216 | 62 | 28 | 2.0 | 6.0 | 0.00 | 0.00 | 0.00 | 34 | 1015.6 |
| 20260509190717 | 63 | 45 | 3.0 | 6.0 | 0.00 | 0.00 | 0.00 | 34 | 1015.5 |
| 20260509190215 | 63 | 75 | 3.0 | 7.0 | 0.00 | 0.00 | 0.00 | 34 | 1015.4 |
| 20260509185716 | 63 | 45 | 4.0 | 7.0 | 0.00 | 0.00 | 0.00 | 33 | 1015.3 |
| 20260509185216 | 63 | 56 | 2.0 | 7.0 | 0.00 | 0.00 | 0.00 | 33 | 1015.3 |
| 20260509184717 | 64 | 38 | 3.0 | 7.0 | 0.00 | 0.00 | 0.00 | 32 | 1015.3 |
| 20260509184216 | 64 | 41 | 4.0 | 7.0 | 0.00 | 0.00 | 0.00 | 31 | 1015.4 |
| 20260509183717 | 64 | 61 | 3.0 | 6.0 | 0.00 | 0.00 | 0.00 | 31 | 1015.4 |
| 20260509183608 | 64 | 16 | 3.0 | 7.0 | 0.00 | 0.00 | 0.00 | 31 | 1015.2 |
| 20260509183119 | 64 | 28 | 3.0 | 7.0 | 0.00 | 0.00 | 0.00 | 31 | 1015.2 |
| 20260509182215 | 65 | 68 | 3.0 | 7.0 | 0.00 | 0.00 | 0.00 | 31 | 1015.1 |
| 20260509181717 | 65 | 39 | 4.0 | 7.0 | 0.00 | 0.00 | 0.00 | 31 | 1015.1 |
| 20260509181214 | 65 | 28 | 3.0 | 7.0 | 0.00 | 0.00 | 0.00 | 31 | 1015.1 |
| 20260509180717 | 65 | 63 | 2.0 | 6.0 | 0.00 | 0.00 | 0.00 | 31 | 1015.0 |
| 20260509180214 | 65 | 48 | 3.0 | 7.0 | 0.00 | 0.00 | 0.00 | 31 | 1015.0 |
| 20260509180116 | 65 | 79 | 3.0 | 7.0 | 0.00 | 0.00 | 0.00 | 30 | 1014.9 |
| 20260509175609 | 66 | 89 | 2.0 | 7.0 | 0.00 | 0.00 | 0.00 | 31 | 1014.9 |
| 20260509175119 | 66 | 89 | 3.0 | 9.0 | 0.00 | 0.00 | 0.00 | 29 | 1014.9 |
| 20260509174212 | 66 | 63 | 4.0 | 11.0 | 0.00 | 0.00 | 0.00 | 30 | 1014.9 |
| 20260509173713 | 66 | 63 | 5.0 | 11.0 | 0.00 | 0.00 | 0.00 | 31 | 1014.8 |
| 20260509173609 | 67 | 66 | 4.0 | 10.0 | 0.00 | 0.00 | 0.00 | 30 | 1014.8 |
| 20260509172711 | 67 | 51 | 4.0 | 10.0 | 0.00 | 0.00 | 0.00 | 31 | 1014.7 |
| 20260509172211 | 67 | 54 | 3.0 | 9.0 | 0.00 | 0.00 | 0.00 | 30 | 1014.7 |
| 20260509171713 | 67 | 83 | 4.0 | 10.0 | 0.00 | 0.00 | 0.00 | 29 | 1014.7 |
| 20260509171208 | 68 | 72 | 5.0 | 10.0 | 0.00 | 0.00 | 0.00 | 29 | 1014.7 |
| 20260509170709 | 68 | 55 | 4.0 | 10.0 | 0.00 | 0.00 | 0.00 | 29 | 1014.8 |
| 20260509170208 | 69 | 52 | 5.0 | 10.0 | 0.00 | 0.00 | 0.00 | 28 | 1014.8 |
| 20260509165707 | 69 | 51 | 4.0 | 9.0 | 0.00 | 0.00 | 0.00 | 28 | 1014.8 |
| 20260509165206 | 69 | 45 | 3.0 | 7.0 | 0.00 | 0.00 | 0.00 | 28 | 1014.8 |
| 20260509164709 | 69 | 48 | 4.0 | 9.0 | 0.00 | 0.00 | 0.00 | 28 | 1014.9 |
| 20260509164205 | 70 | 76 | 5.0 | 9.0 | 0.00 | 0.00 | 0.00 | 27 | 1014.8 |
| 20260509164109 | 70 | 25 | 2.0 | 7.0 | 0.00 | 0.00 | 0.00 | 26 | 1014.7 |
| 20260509163604 | 71 | 65 | 2.0 | 7.0 | 0.00 | 0.00 | 0.00 | 26 | 1014.8 |
| 20260509162703 | 71 | 63 | 2.0 | 11.0 | 0.00 | 0.00 | 0.00 | 26 | 1014.8 |
| 20260509162556 | 71 | 78 | 5.0 | 10.0 | 0.00 | 0.00 | 0.00 | 26 | 1014.7 |
| 20260509161705 | 71 | 45 | 4.0 | 9.0 | 0.00 | 0.00 | 0.00 | 26 | 1014.6 |
| 20260509161558 | 71 | 54 | 5.0 | 9.0 | 0.00 | 0.00 | 0.00 | 26 | 1014.6 |
| 20260509160702 | 71 | 42 | 3.0 | 7.0 | 0.00 | 0.00 | 0.00 | 27 | 1014.7 |
| 20260509160200 | 71 | 45 | 2.0 | 10.0 | 0.00 | 0.00 | 0.00 | 27 | 1014.7 |
| 20260509155702 | 71 | 42 | 3.0 | 10.0 | 0.00 | 0.00 | 0.00 | 27 | 1014.7 |
| 20260509155200 | 71 | 89 | 2.0 | 7.0 | 0.00 | 0.00 | 0.00 | 27 | 1014.8 |
| 20260509154703 | 71 | 35 | 3.0 | 9.0 | 0.00 | 0.00 | 0.00 | 27 | 1015.0 |
| 20260509154340 | 70 | 351 | 2.0 | 9.0 | 0.00 | 0.00 | 0.00 | 27 | 1014.9 |
| 20260509153156 | 70 | 58 | 4.0 | 7.0 | 0.00 | 0.00 | 0.00 | 27 | 1015.0 |
| 20260509152659 | 70 | 42 | 2.0 | 9.0 | 0.00 | 0.00 | 0.00 | 28 | 1015.0 |
| 20260509152157 | 70 | 76 | 4.0 | 9.0 | 0.00 | 0.00 | 0.00 | 28 | 1015.2 |
| 20260509151657 | 70 | 35 | 3.0 | 7.0 | 0.00 | 0.00 | 0.00 | 27 | 1015.0 |
| 20260509151159 | 70 | 38 | 2.0 | 7.0 | 0.00 | 0.00 | 0.00 | 27 | 1015.1 |
| 20260509150659 | 70 | 99 | 2.0 | 7.0 | 0.00 | 0.00 | 0.00 | 28 | 1015.3 |
| 20260509150158 | 70 | 62 | 2.0 | 10.0 | 0.00 | 0.00 | 0.00 | 27 | 1015.3 |
| 20260509145656 | 70 | 54 | 3.0 | 10.0 | 0.00 | 0.00 | 0.00 | 26 | 1015.2 |
| 20260509145156 | 70 | 51 | 3.0 | 9.0 | 0.00 | 0.00 | 0.00 | 26 | 1015.2 |
| 20260509145050 | 70 | 61 | 5.0 | 9.0 | 0.00 | 0.00 | 0.00 | 26 | 1015.3 |
| 20260509144554 | 70 | 25 | 3.0 | 7.0 | 0.00 | 0.00 | 0.00 | 26 | 1015.2 |
| 20260509144054 | 70 | 72 | 5.0 | 9.0 | 0.00 | 0.00 | 0.00 | 26 | 1015.2 |
| 20260509143158 | 70 | 45 | 3.0 | 11.0 | 0.00 | 0.00 | 0.00 | 27 | 1015.2 |
| 20260509142658 | 71 | 45 | 5.0 | 11.0 | 0.00 | 0.00 | 0.00 | 27 | 1015.2 |
| 20260509142156 | 71 | 38 | 3.0 | 9.0 | 0.00 | 0.00 | 0.00 | 27 | 1015.1 |
| 20260509141656 | 71 | 59 | 4.0 | 10.0 | 0.00 | 0.00 | 0.00 | 26 | 1015.0 |
| 20260509141157 | 71 | 59 | 3.0 | 10.0 | 0.00 | 0.00 | 0.00 | 25 | 1015.0 |
| 20260509140656 | 71 | 37 | 3.0 | 9.0 | 0.00 | 0.00 | 0.00 | 27 | 1014.9 |
| 20260509140157 | 71 | 28 | 2.0 | 9.0 | 0.00 | 0.00 | 0.00 | 27 | 1014.9 |
| 20260509135656 | 72 | 61 | 4.0 | 7.0 | 0.00 | 0.00 | 0.00 | 27 | 1015.0 |
| 20260509135548 | 72 | 72 | 3.0 | 9.0 | 0.00 | 0.00 | 0.00 | 27 | 1015.1 |
| 20260509134654 | 72 | 52 | 5.0 | 9.0 | 0.00 | 0.00 | 0.00 | 27 | 1015.1 |
| 20260509134612 | 72 | 1 | 2.0 | 11.0 | 0.00 | 0.00 | 0.00 | 28 | 1015.2 |
| 20260509133653 | 71 | 63 | 4.0 | 11.0 | 0.00 | 0.00 | 0.00 | 28 | 1015.2 |
| 20260509133154 | 71 | 71 | 3.0 | 10.0 | 0.00 | 0.00 | 0.00 | 28 | 1015.1 |
| 20260509132653 | 71 | 51 | 4.0 | 9.0 | 0.00 | 0.00 | 0.00 | 28 | 1015.2 |
| 20260509132154 | 71 | 28 | 3.0 | 12.0 | 0.00 | 0.00 | 0.00 | 28 | 1015.2 |
| 20260509131653 | 71 | 62 | 4.0 | 12.0 | 0.00 | 0.00 | 0.00 | 29 | 1015.2 |
| 20260509131154 | 71 | 49 | 2.0 | 12.0 | 0.00 | 0.00 | 0.00 | 30 | 1015.2 |
| 20260509130655 | 71 | 37 | 4.0 | 12.0 | 0.00 | 0.00 | 0.00 | 30 | 1015.3 |
| 20260509130153 | 71 | 45 | 2.0 | 11.0 | 0.00 | 0.00 | 0.00 | 31 | 1015.3 |
| 20260509125826 | 70 | 54 | 2.0 | 11.0 | 0.00 | 0.00 | 0.00 | 31 | 1015.4 |